When you browse on this site, cookies collect data to enhance your experience and personalize the content and advertising you see.
Visit our Privacy Policy to learn more. By continuing to use the site, you agree to this use of cookies and data.

Stündliche Wetter Aadorf

Heute, 9 August, Sonntag

Zeit Temperatur Niederschläge Wind Luftdruck Luftfeuchtigkeit
00:00 +19°C° 0 mm 1 m/S 712 mmHg 88%
01:00 +16°C° 0 mm 0 m/S 712 mmHg 88%
02:00 +16°C° 0 mm 0 m/S 712 mmHg 88%
03:00 +16°C° 0 mm 0 m/S 712 mmHg 89%
04:00 +15°C° 0 mm 0 m/S 712 mmHg 89%
05:00 +16°C° 0 mm 0 m/S 712 mmHg 88%
06:00 +17°C° 0 mm 0 m/S 712 mmHg 87%
07:00 +18°C° 0 mm 0 m/S 712 mmHg 85%
08:00 +20°C° 0 mm 0 m/S 712 mmHg 78%
09:00 +24°C° 0 mm 1 m/S 712 mmHg 72%
10:00 +26°C° 0 mm 1 m/S 713 mmHg 65%
11:00 +27°C° 0 mm 1 m/S 712 mmHg 60%
12:00 +29°C° 0 mm 1 m/S 712 mmHg 55%
13:00 +30°C° 0 mm 1 m/S 712 mmHg 50%
14:00 +30°C° 0 mm 1 m/S 712 mmHg 50%
15:00 +30°C° 0 mm 1 m/S 712 mmHg 50%
16:00 +30°C° 0 mm 1 m/S 712 mmHg 49%
17:00 +28°C° 0 mm 2 m/S 711 mmHg 59%
18:00 +26°C° 0 mm 2 m/S 711 mmHg 69%
19:00 +25°C° 0 mm 2 m/S 710 mmHg 78%
20:00 +23°C° 0 mm 1 m/S 710 mmHg 82%
21:00 +22°C° 0 mm 1 m/S 710 mmHg 86%
22:00 +20°C° 0 mm 1 m/S 710 mmHg 89%
23:00 +20°C° 0 mm 1 m/S 710 mmHg 89%

Morgen, 10 August, Montag

Zeit Temperatur Niederschläge Wind Luftdruck Luftfeuchtigkeit
00:00 +19°C° 0 mm 1 m/S 710 mmHg 89%
01:00 +17°C° 0 mm 0 m/S 710 mmHg 89%
02:00 +16°C° 0 mm 0 m/S 710 mmHg 89%
03:00 +16°C° 0 mm 0 m/S 709 mmHg 90%
04:00 +16°C° 0 mm 0 m/S 709 mmHg 90%
05:00 +16°C° 0 mm 0 m/S 709 mmHg 89%
06:00 +17°C° 0 mm 0 m/S 709 mmHg 88%
07:00 +18°C° 0 mm 0 m/S 709 mmHg 87%
08:00 +20°C° 0 mm 0 m/S 709 mmHg 80%
09:00 +24°C° 0 mm 1 m/S 710 mmHg 73%
10:00 +26°C° 0 mm 1 m/S 710 mmHg 67%
11:00 +27°C° 0 mm 1 m/S 710 mmHg 63%
12:00 +29°C° 0 mm 1 m/S 710 mmHg 58%
13:00 +30°C° 0 mm 1 m/S 710 mmHg 54%
14:00 +30°C° 0 mm 1 m/S 710 mmHg 54%
15:00 +30°C° 0 mm 1 m/S 710 mmHg 53%
16:00 +30°C° 0 mm 2 m/S 710 mmHg 53%
17:00 +28°C° 0.2 mm 1 m/S 710 mmHg 63%
18:00 +27°C° 0.2 mm 1 m/S 710 mmHg 72%
19:00 +25°C° 0.2 mm 1 m/S 709 mmHg 82%
20:00 +24°C° 0.1 mm 1 m/S 710 mmHg 84%
21:00 +22°C° 0.1 mm 1 m/S 710 mmHg 87%
22:00 +21°C° 0.1 mm 1 m/S 710 mmHg 90%
23:00 +20°C° 0 mm 1 m/S 710 mmHg 89%

übermorgen, 11 August, Dienstag

Zeit Temperatur Niederschläge Wind Luftdruck Luftfeuchtigkeit
00:00 +20°C° 0 mm 1 m/S 710 mmHg 89%
01:00 +20°C° 0 mm 1 m/S 710 mmHg 89%
02:00 +17°C° 0 mm 0 m/S 710 mmHg 88%
03:00 +17°C° 0 mm 0 m/S 709 mmHg 87%
04:00 +17°C° 0 mm 0 m/S 709 mmHg 87%
05:00 +17°C° 0.2 mm 0 m/S 710 mmHg 87%
06:00 +18°C° 0.2 mm 0 m/S 710 mmHg 88%
07:00 +18°C° 0.2 mm 0 m/S 710 mmHg 88%
08:00 +20°C° 0.1 mm 0 m/S 710 mmHg 80%
09:00 +25°C° 0.1 mm 1 m/S 710 mmHg 72%
10:00 +27°C° 0.1 mm 1 m/S 711 mmHg 64%
11:00 +28°C° 0.1 mm 1 m/S 711 mmHg 60%
12:00 +30°C° 0.1 mm 1 m/S 711 mmHg 55%
13:00 +31°C° 0.1 mm 1 m/S 711 mmHg 51%
14:00 +31°C° 0.1 mm 1 m/S 711 mmHg 52%
15:00 +30°C° 0.1 mm 1 m/S 711 mmHg 53%
16:00 +30°C° 0.1 mm 1 m/S 710 mmHg 54%
17:00 +28°C° 0.6 mm 1 m/S 710 mmHg 64%
18:00 +26°C° 0.6 mm 1 m/S 710 mmHg 73%
19:00 +24°C° 0.6 mm 1 m/S 710 mmHg 83%
20:00 +23°C° 1.4 mm 1 m/S 710 mmHg 86%
21:00 +22°C° 1.4 mm 1 m/S 710 mmHg 89%
22:00 +20°C° 1.4 mm 1 m/S 710 mmHg 92%
23:00 +20°C° 0.2 mm 1 m/S 710 mmHg 92%

12 August, Mittwoch

Zeit Temperatur Niederschläge Wind Luftdruck Luftfeuchtigkeit
00:00 +20°C° 0.2 mm 1 m/S 710 mmHg 92%
01:00 +17°C° 0.2 mm 0 m/S 710 mmHg 92%
02:00 +17°C° 0 mm 0 m/S 710 mmHg 92%
03:00 +19°C° 0 mm 1 m/S 709 mmHg 92%
04:00 +18°C° 0 mm 1 m/S 709 mmHg 92%
05:00 +17°C° 0 mm 0 m/S 709 mmHg 92%
06:00 +18°C° 0 mm 0 m/S 709 mmHg 91%
07:00 +18°C° 0 mm 0 m/S 709 mmHg 90%
08:00 +20°C° 0 mm 0 m/S 710 mmHg 83%
09:00 +25°C° 0 mm 1 m/S 710 mmHg 75%
10:00 +27°C° 0 mm 1 m/S 710 mmHg 67%
11:00 +28°C° 0 mm 1 m/S 710 mmHg 63%
12:00 +29°C° 0 mm 1 m/S 710 mmHg 58%
13:00 +30°C° 0 mm 1 m/S 710 mmHg 53%
14:00 +30°C° 0 mm 1 m/S 710 mmHg 53%
15:00 +30°C° 0 mm 1 m/S 710 mmHg 52%
16:00 +30°C° 0 mm 1 m/S 709 mmHg 52%
17:00 +29°C° 0.2 mm 1 m/S 709 mmHg 62%
18:00 +27°C° 0.2 mm 1 m/S 709 mmHg 72%
19:00 +25°C° 0.2 mm 1 m/S 709 mmHg 82%
20:00 +24°C° 0.1 mm 1 m/S 709 mmHg 84%
21:00 +23°C° 0.1 mm 1 m/S 709 mmHg 87%
22:00 +21°C° 0.1 mm 1 m/S 709 mmHg 89%
23:00 +21°C° 0 mm 1 m/S 709 mmHg 88%

13 August, Donnerstag

Zeit Temperatur Niederschläge Wind Luftdruck Luftfeuchtigkeit
00:00 +20°C° 0 mm 1 m/S 708 mmHg 88%
01:00 +20°C° 0 mm 1 m/S 708 mmHg 87%
02:00 +20°C° 0.4 mm 1 m/S 708 mmHg 88%
03:00 +19°C° 0.4 mm 1 m/S 708 mmHg 90%
04:00 +17°C° 0.4 mm 0 m/S 708 mmHg 91%
05:00 +19°C° 0.7 mm 1 m/S 708 mmHg 91%
06:00 +20°C° 0.7 mm 1 m/S 708 mmHg 91%
07:00 +20°C° 0.7 mm 1 m/S 708 mmHg 91%
08:00 +22°C° 0 mm 1 m/S 709 mmHg 82%
09:00 +24°C° 0 mm 1 m/S 709 mmHg 73%
10:00 +26°C° 0 mm 2 m/S 709 mmHg 63%
11:00 +27°C° 0 mm 2 m/S 709 mmHg 60%
12:00 +28°C° 0 mm 2 m/S 709 mmHg 56%
13:00 +29°C° 0 mm 2 m/S 709 mmHg 52%
14:00 +28°C° 0.2 mm 2 m/S 709 mmHg 58%
15:00 +26°C° 0.2 mm 2 m/S 708 mmHg 65%
16:00 +25°C° 0.2 mm 2 m/S 708 mmHg 71%
17:00 +23°C° 0.7 mm 2 m/S 708 mmHg 78%
18:00 +21°C° 0.7 mm 2 m/S 708 mmHg 84%
19:00 +19°C° 0.7 mm 2 m/S 708 mmHg 91%
20:00 +18°C° 1.2 mm 2 m/S 708 mmHg 93%
21:00 +18°C° 1.2 mm 2 m/S 708 mmHg 94%
22:00 +17°C° 1.2 mm 2 m/S 708 mmHg 96%
23:00 +17°C° 1.5 mm 2 m/S 708 mmHg 96%

14 August, Freitag

Zeit Temperatur Niederschläge Wind Luftdruck Luftfeuchtigkeit
00:00 +18°C° 1.5 mm 1 m/S 708 mmHg 96%
01:00 +18°C° 1.5 mm 1 m/S 708 mmHg 96%
02:00 +16°C° 0.1 mm 1 m/S 708 mmHg 96%
03:00 +16°C° 0.1 mm 1 m/S 708 mmHg 96%
04:00 +15°C° 0.1 mm 0 m/S 707 mmHg 95%
05:00 +16°C° 0.1 mm 1 m/S 707 mmHg 95%
06:00 +16°C° 0.1 mm 1 m/S 708 mmHg 95%
07:00 +18°C° 0.1 mm 1 m/S 708 mmHg 95%
08:00 +18°C° 0.2 mm 1 m/S 708 mmHg 95%
09:00 +18°C° 0.2 mm 1 m/S 708 mmHg 94%
10:00 +18°C° 0.2 mm 1 m/S 708 mmHg 94%
11:00 +17°C° 0.7 mm 2 m/S 708 mmHg 94%
12:00 +17°C° 0.7 mm 2 m/S 708 mmHg 94%
13:00 +17°C° 0.7 mm 2 m/S 708 mmHg 94%
14:00 +18°C° 1 mm 1 m/S 707 mmHg 95%
15:00 +18°C° 1 mm 1 m/S 707 mmHg 95%
16:00 +16°C° 1 mm 1 m/S 707 mmHg 96%
17:00 +18°C° 0.2 mm 1 m/S 708 mmHg 95%
18:00 +16°C° 0.2 mm 0 m/S 708 mmHg 95%
19:00 +16°C° 0.2 mm 0 m/S 708 mmHg 94%
20:00 +15°C° 0.1 mm 0 m/S 708 mmHg 94%
21:00 +14°C° 0.1 mm 0 m/S 708 mmHg 95%
22:00 +14°C° 0.1 mm 0 m/S 708 mmHg 95%
23:00 +13°C° 0 mm 0 m/S 708 mmHg 95%
Mehr zeigen